| time (UTC) | temp F | wind direction | speed knots | gust knots | rain 1hr in | rain 24hr in | rain mn in | humidity % | barometer mb |
| 20260902234521 | 99 | 7.8 | 13.9 | 0.00 | 0.00 | 0.00 | 8 | 948.6 | |
| 20260902233028 | 99 | 139 | 7.0 | 13.0 | 0.00 | 0.00 | 0.00 | 9 | 948.7 |
| 20260902231518 | 98 | 152 | 13.0 | 19.1 | 0.00 | 0.00 | 0.00 | 10 | 948.8 |
| 20260902230015 | 98 | 8.7 | 17.4 | 0.00 | 0.00 | 0.00 | 10 | 948.9 | |
| 20260902224514 | 98 | 169 | 7.8 | 17.4 | 0.00 | 0.00 | 0.00 | 10 | 949.2 |
| 20260902223011 | 99 | 8.7 | 17.4 | 0.00 | 0.00 | 0.00 | 10 | 949.3 | |
| 20260902221507 | 98 | 168 | 9.6 | 13.9 | 0.00 | 0.00 | 0.00 | 11 | 949.7 |
| 20260902220007 | 98 | 7.8 | 20.9 | 0.00 | 0.00 | 0.00 | 11 | 949.8 | |
| 20260902214505 | 97 | 171 | 12.2 | 21.7 | 0.00 | 0.00 | 0.00 | 11 | 950.1 |
| 20260902213003 | 97 | 163 | 6.1 | 20.9 | 0.00 | 0.00 | 0.00 | 12 | 950.1 |
| 20260902211503 | 97 | 188 | 10.4 | 16.5 | 0.00 | 0.00 | 0.00 | 11 | 950.4 |
| 20260902210002 | 97 | 224 | 7.8 | 14.8 | 0.00 | 0.00 | 0.00 | 12 | 950.6 |
| 20260902204501 | 95 | 214 | 7.0 | 14.8 | 0.00 | 0.00 | 0.00 | 12 | 950.8 |
| 20260902203101 | 96 | 229 | 8.7 | 15.6 | 0.00 | 0.00 | 0.00 | 11 | 951.1 |
| 20260902201630 | 95 | 240 | 8.7 | 13.0 | 0.00 | 0.00 | 0.00 | 12 | 951.4 |
| 20260902200109 | 96 | 192 | 8.7 | 13.0 | 0.00 | 0.00 | 0.00 | 12 | 951.5 |
| 20260902194559 | 94 | 140 | 9.6 | 13.9 | 0.00 | 0.00 | 0.00 | 12 | 951.5 |
| 20260902193055 | 94 | 164 | 10.4 | 16.5 | 0.00 | 0.00 | 0.00 | 12 | 951.7 |
| 20260902191553 | 93 | 241 | 7.0 | 14.8 | 0.00 | 0.00 | 0.00 | 14 | 951.9 |
| 20260902190051 | 93 | 191 | 6.1 | 13.9 | 0.00 | 0.00 | 0.00 | 15 | 952.0 |
| 20260902184550 | 93 | 142 | 5.2 | 13.0 | 0.00 | 0.00 | 0.00 | 16 | 952.2 |
| 20260902183053 | 92 | 229 | 7.0 | 13.9 | 0.00 | 0.00 | 0.00 | 16 | 952.5 |
| 20260902181554 | 91 | 6.1 | 9.6 | 0.00 | 0.00 | 0.00 | 16 | 952.6 | |
| 20260902180056 | 90 | 159 | 4.3 | 9.6 | 0.00 | 0.00 | 0.00 | 17 | 952.7 |
| 20260902174545 | 89 | 198 | 7.8 | 15.6 | 0.00 | 0.00 | 0.00 | 19 | 952.9 |
| 20260902173043 | 89 | 238 | 7.0 | 12.2 | 0.00 | 0.00 | 0.00 | 20 | 952.9 |
| 20260902171545 | 88 | 243 | 8.7 | 14.8 | 0.00 | 0.00 | 0.00 | 21 | 952.9 |
| 20260902170041 | 87 | 206 | 4.3 | 9.6 | 0.00 | 0.00 | 0.00 | 22 | 952.8 |
| 20260902164551 | 86 | 243 | 6.1 | 9.6 | 0.00 | 0.00 | 0.00 | 22 | 952.8 |
| 20260902163043 | 86 | 240 | 2.6 | 7.8 | 0.00 | 0.00 | 0.00 | 21 | 952.8 |
| 20260902161539 | 86 | 242 | 3.5 | 9.6 | 0.00 | 0.00 | 0.00 | 20 | 952.7 |
| 20260902160038 | 85 | 241 | 6.1 | 9.6 | 0.00 | 0.00 | 0.00 | 19 | 952.7 |
| 20260902154543 | 85 | 5.2 | 7.8 | 0.00 | 0.00 | 0.00 | 20 | 952.6 | |
| 20260902153038 | 85 | 259 | 3.5 | 7.8 | 0.00 | 0.00 | 0.00 | 20 | 952.5 |
| 20260902151534 | 85 | 207 | 3.5 | 7.0 | 0.00 | 0.00 | 0.00 | 19 | 952.4 |
| 20260902150032 | 85 | 233 | 2.6 | 8.7 | 0.00 | 0.00 | 0.00 | 19 | 952.4 |
| 20260902144530 | 83 | 182 | 1.7 | 4.3 | 0.00 | 0.00 | 0.00 | 21 | 952.3 |
| 20260902143028 | 83 | 196 | 0.0 | 2.6 | 0.00 | 0.00 | 0.00 | 24 | 952.1 |
| 20260902141528 | 82 | 252 | 0.9 | 2.6 | 0.00 | 0.00 | 0.00 | 24 | 952.0 |
| 20260902140034 | 81 | 120 | 3.5 | 7.0 | 0.00 | 0.00 | 0.00 | 24 | 951.7 |
| 20260902134523 | 81 | 110 | 5.2 | 7.8 | 0.00 | 0.00 | 0.00 | 25 | 951.5 |
| 20260902133022 | 79 | 104 | 5.2 | 7.8 | 0.00 | 0.00 | 0.00 | 29 | 951.5 |
| 20260902131519 | 80 | 3.5 | 5.2 | 0.00 | 0.00 | 0.00 | 28 | 951.4 | |
| 20260902130017 | 81 | 3.5 | 5.2 | 0.00 | 0.00 | 0.00 | 27 | 951.3 | |
| 20260902124518 | 82 | 143 | 3.5 | 6.1 | 0.00 | 0.00 | 0.00 | 25 | 951.3 |
| 20260902123014 | 82 | 135 | 3.5 | 6.1 | 0.00 | 0.00 | 0.00 | 28 | 951.1 |
| 20260902121509 | 82 | 151 | 3.5 | 7.0 | 0.00 | 0.00 | 0.00 | 29 | 950.9 |
| 20260902120010 | 82 | 139 | 3.5 | 7.0 | 0.00 | 0.00 | 0.00 | 32 | 951.0 |
| 20260902114508 | 82 | 135 | 2.6 | 4.3 | 0.00 | 0.00 | 0.00 | 32 | 951.0 |
| 20260902113006 | 83 | 137 | 0.9 | 3.5 | 0.00 | 0.00 | 0.00 | 30 | 950.9 |
| 20260902111503 | 84 | 133 | 2.6 | 4.3 | 0.00 | 0.00 | 0.00 | 27 | 950.8 |
| 20260902110111 | 84 | 179 | 2.6 | 5.2 | 0.00 | 0.00 | 0.00 | 25 | 950.7 |
| 20260902104559 | 85 | 208 | 3.5 | 6.1 | 0.00 | 0.00 | 0.00 | 27 | 950.7 |
| 20260902103106 | 84 | 179 | 3.5 | 8.7 | 0.00 | 0.00 | 0.00 | 37 | 950.5 |
| 20260902101558 | 85 | 193 | 5.2 | 8.7 | 0.00 | 0.00 | 0.00 | 38 | 950.6 |
| 20260902100054 | 85 | 0.9 | 5.2 | 0.00 | 0.00 | 0.00 | 41 | 950.5 | |
| 20260902094551 | 85 | 193 | 2.6 | 5.2 | 0.00 | 0.00 | 0.00 | 41 | 950.5 |
| 20260902093111 | 86 | 236 | 3.5 | 7.0 | 0.00 | 0.00 | 0.00 | 42 | 950.4 |
| 20260902091552 | 87 | 3.5 | 8.7 | 0.00 | 0.00 | 0.00 | 42 | 950.3 | |
| 20260902090049 | 87 | 198 | 6.1 | 10.4 | 0.00 | 0.00 | 0.00 | 42 | 950.4 |
| 20260902084552 | 88 | 203 | 3.5 | 13.0 | 0.00 | 0.00 | 0.00 | 40 | 950.3 |
| 20260902083046 | 89 | 195 | 7.8 | 12.2 | 0.00 | 0.00 | 0.00 | 40 | 950.2 |
| 20260902081533 | 90 | 179 | 7.8 | 15.6 | 0.00 | 0.00 | 0.00 | 39 | 950.0 |
| 20260902080029 | 90 | 165 | 7.0 | 15.6 | 0.00 | 0.00 | 0.00 | 37 | 949.9 |
| 20260902074528 | 91 | 151 | 9.6 | 17.4 | 0.00 | 0.00 | 0.00 | 37 | 949.8 |
| 20260902073026 | 91 | 160 | 11.3 | 19.1 | 0.00 | 0.00 | 0.00 | 36 | 949.7 |
| 20260902071525 | 92 | 155 | 7.8 | 18.2 | 0.00 | 0.00 | 0.00 | 32 | 949.6 |
| 20260902070021 | 93 | 159 | 9.6 | 17.4 | 0.00 | 0.00 | 0.00 | 26 | 949.7 |
| 20260902064517 | 93 | 205 | 5.2 | 13.0 | 0.00 | 0.00 | 0.00 | 23 | 949.6 |
| 20260902063022 | 93 | 158 | 6.1 | 13.9 | 0.00 | 0.00 | 0.00 | 22 | 949.5 |
| 20260902060020 | 92 | 131 | 5.2 | 8.7 | 0.00 | 0.00 | 0.00 | 22 | 949.3 |
| 20260902054515 | 92 | 148 | 5.2 | 11.3 | 0.00 | 0.00 | 0.00 | 22 | 949.3 |
| 20260902053017 | 93 | 143 | 6.1 | 9.6 | 0.00 | 0.00 | 0.00 | 21 | 949.4 |
| 20260902051513 | 93 | 145 | 6.1 | 13.0 | 0.00 | 0.00 | 0.00 | 21 | 949.6 |
| 20260902050013 | 93 | 155 | 6.1 | 11.3 | 0.00 | 0.00 | 0.00 | 21 | 949.5 |
| 20260902044513 | 93 | 144 | 6.1 | 13.9 | 0.00 | 0.00 | 0.00 | 21 | 949.6 |
| 20260902043012 | 94 | 145 | 6.1 | 11.3 | 0.00 | 0.00 | 0.00 | 20 | 949.5 |
| 20260902041512 | 94 | 197 | 7.8 | 14.8 | 0.00 | 0.00 | 0.00 | 20 | 949.4 |
| 20260902040013 | 94 | 198 | 7.0 | 13.9 | 0.00 | 0.00 | 0.00 | 20 | 949.2 |
| 20260902034511 | 94 | 193 | 5.2 | 12.2 | 0.00 | 0.00 | 0.00 | 20 | 949.1 |
| 20260902033009 | 94 | 206 | 7.8 | 12.2 | 0.00 | 0.00 | 0.00 | 20 | 948.8 |
| 20260902031510 | 95 | 230 | 6.1 | 12.2 | 0.00 | 0.00 | 0.00 | 19 | 948.6 |
| 20260902030007 | 95 | 184 | 7.0 | 11.3 | 0.00 | 0.00 | 0.00 | 20 | 948.4 |
| 20260902024518 | 96 | 217 | 5.2 | 13.9 | 0.00 | 0.00 | 0.00 | 19 | 948.2 |
| 20260902023006 | 97 | 206 | 7.0 | 13.9 | 0.00 | 0.00 | 0.00 | 19 | 948.2 |
| 20260902021505 | 97 | 219 | 7.8 | 13.9 | 0.00 | 0.00 | 0.00 | 19 | 947.9 |
| 20260902020006 | 98 | 206 | 9.6 | 19.1 | 0.00 | 0.00 | 0.00 | 19 | 947.8 |
| 20260902014606 | 99 | 195 | 10.4 | 18.2 | 0.00 | 0.00 | 0.00 | 18 | 947.9 |
| 20260902013005 | 99 | 225 | 13.0 | 20.9 | 0.00 | 0.00 | 0.00 | 18 | 947.8 |
| 20260902011502 | 100 | 172 | 7.8 | 20.0 | 0.00 | 0.00 | 0.00 | 18 | 947.8 |
| 20260902010002 | 100 | 243 | 9.6 | 24.3 | 0.00 | 0.00 | 0.00 | 18 | 947.9 |
| 20260902004559 | 100 | 233 | 12.2 | 21.7 | 0.00 | 0.00 | 0.00 | 20 | 948.0 |
| 20260902003058 | 100 | 205 | 15.6 | 28.7 | 0.00 | 0.00 | 0.00 | 21 | 948.2 |
| 20260902001556 | 100 | 168 | 12.2 | 20.0 | 0.00 | 0.00 | 0.00 | 27 | 948.3 |
| 20260902000100 | 100 | 205 | 11.3 | 18.2 | 0.00 | 0.00 | 0.00 | 28 | 948.2 |